�������l�o���
Date,Time,MP-1(��Sv/h),MP-2(��Sv/h),MP-3(��Sv/h),MP-4(��Sv/h),MP-5(��Sv/h),MP-6(��Sv/h),MP-7(��Sv/h),MP-8(��Sv/h),����,����(m/s),���J
2023/04/07,00:00,0.573,0.837,0.503,1.049,0.737,0.326,0.586,0.553,��,9.0,��
2023/04/07,00:10,0.572,0.838,0.503,1.049,0.739,0.327,0.587,0.553,��쓌,8.6,��
2023/04/07,00:20,0.572,0.837,0.502,1.048,0.736,0.327,0.584,0.552,��,7.9,��
2023/04/07,00:30,0.575,0.837,0.503,1.050,0.736,0.325,0.585,0.552,��,7.9,��
2023/04/07,00:40,0.574,0.837,0.502,1.047,0.738,0.327,0.584,0.553,��쓌,7.2,��
2023/04/07,00:50,0.575,0.838,0.501,1.046,0.736,0.326,0.585,0.551,��쓌,6.9,��
2023/04/07,01:00,0.574,0.840,0.503,1.047,0.736,0.329,0.585,0.553,��쓌,8.3,��
2023/04/07,01:10,0.575,0.839,0.504,1.047,0.739,0.327,0.584,0.552,��쓌,8.9,��
2023/04/07,01:20,0.573,0.838,0.502,1.047,0.738,0.327,0.584,0.551,��,7.9,��
2023/04/07,01:30,0.576,0.838,0.503,1.049,0.737,0.326,0.586,0.554,��,7.7,��
2023/04/07,01:40,0.574,0.841,0.503,1.049,0.739,0.327,0.586,0.551,��,7.8,��
2023/04/07,01:50,0.576,0.840,0.502,1.049,0.739,0.326,0.585,0.552,��,7.8,��
2023/04/07,02:00,0.577,0.838,0.501,1.050,0.737,0.326,0.585,0.553,��,7.5,��
2023/04/07,02:10,0.575,0.838,0.503,1.048,0.738,0.326,0.586,0.553,��,6.8,��
2023/04/07,02:20,0.574,0.839,0.502,1.049,0.736,0.327,0.585,0.552,��쓌,6.5,��
2023/04/07,02:30,0.576,0.838,0.502,1.050,0.737,0.326,0.586,0.552,��쓌,8.0,��
2023/04/07,02:40,0.576,0.840,0.503,1.047,0.736,0.327,0.585,0.552,��쓌,6.7,��
2023/04/07,02:50,0.576,0.840,0.502,1.049,0.737,0.328,0.586,0.550,��,8.7,��
2023/04/07,03:00,0.575,0.837,0.503,1.049,0.738,0.327,0.585,0.553,��,10.2,��
2023/04/07,03:10,0.575,0.840,0.504,1.049,0.739,0.327,0.587,0.552,��,11.3,��
2023/04/07,03:20,0.574,0.840,0.501,1.048,0.737,0.326,0.584,0.552,��쓌,11.6,��
2023/04/07,03:30,0.574,0.839,0.503,1.049,0.737,0.327,0.585,0.551,��,9.3,��
2023/04/07,03:40,0.574,0.838,0.501,1.049,0.739,0.326,0.585,0.551,��,9.1,��
2023/04/07,03:50,0.573,0.837,0.502,1.048,0.735,0.325,0.584,0.552,��쓌,9.9,��
2023/04/07,04:00,0.573,0.838,0.503,1.048,0.736,0.327,0.585,0.554,��,8.6,��
2023/04/07,04:10,0.572,0.838,0.503,1.049,0.735,0.326,0.585,0.551,��쓌,7.8,��
2023/04/07,04:20,0.573,0.838,0.501,1.048,0.736,0.327,0.584,0.552,��,8.9,��
2023/04/07,04:30,0.574,0.835,0.501,1.048,0.736,0.327,0.584,0.553,��,9.1,��
2023/04/07,04:40,0.573,0.833,0.502,1.050,0.736,0.326,0.585,0.553,��,9.4,��
2023/04/07,04:50,0.572,0.835,0.503,1.049,0.736,0.328,0.585,0.553,��,9.4,��
2023/04/07,05:00,0.573,0.836,0.503,1.049,0.737,0.325,0.585,0.551,��,10.5,��
2023/04/07,05:10,0.573,0.838,0.502,1.047,0.737,0.327,0.583,0.550,��,10.5,��
2023/04/07,05:20,0.572,0.837,0.502,1.050,0.736,0.328,0.584,0.553,��,11.9,��
2023/04/07,05:30,0.573,0.835,0.503,1.047,0.738,0.327,0.584,0.554,��,12.0,��
2023/04/07,05:40,0.572,0.836,0.501,1.047,0.738,0.329,0.584,0.553,��,10.7,��
2023/04/07,05:50,0.572,0.835,0.504,1.051,0.736,0.326,0.583,0.554,��,10.9,��
2023/04/07,06:00,0.573,0.836,0.502,1.049,0.738,0.326,0.584,0.552,��쓌,11.6,�L
2023/04/07,06:10,0.574,0.836,0.501,1.050,0.737,0.326,0.584,0.552,��쓌,11.7,�L
2023/04/07,06:20,0.573,0.836,0.502,1.050,0.735,0.326,0.583,0.552,��쓌,12.7,��
2023/04/07,06:30,0.573,0.835,0.502,1.050,0.738,0.326,0.583,0.551,��쓌,10.2,��
2023/04/07,06:40,0.572,0.833,0.501,1.049,0.736,0.326,0.583,0.550,��쓌,10.2,��
2023/04/07,06:50,0.574,0.833,0.500,1.047,0.736,0.326,0.583,0.550,��쓌,11.7,�L
2023/04/07,07:00,0.572,0.834,0.500,1.050,0.738,0.325,0.583,0.552,��쓌,13.8,��
2023/04/07,07:10,0.573,0.838,0.500,1.048,0.736,0.325,0.583,0.550,��쓌,12.2,��
2023/04/07,07:20,0.571,0.834,0.499,1.049,0.736,0.327,0.583,0.549,��쓌,11.3,�L
2023/04/07,07:30,0.572,0.836,0.497,1.049,0.735,0.326,0.585,0.550,��쓌,13.5,��
2023/04/07,07:40,0.574,0.835,0.499,1.048,0.735,0.326,0.584,0.548,��쓌,12.2,�L
2023/04/07,07:50,0.572,0.835,0.501,1.048,0.737,0.325,0.583,0.550,��쓌,11.6,�L
2023/04/07,08:00,0.572,0.834,0.501,1.049,0.737,0.327,0.584,0.551,��쓌,11.7,�L
2023/04/07,08:10,0.574,0.835,0.502,1.049,0.735,0.326,0.584,0.550,��,8.9,�L
2023/04/07,08:20,0.574,0.835,0.500,1.050,0.736,0.325,0.585,0.549,��,10.7,�L
2023/04/07,08:30,0.574,0.832,0.501,1.048,0.735,0.326,0.585,0.551,��,10.2,�L
2023/04/07,08:40,0.573,0.835,0.501,1.050,0.735,0.324,0.585,0.552,��,10.5,��
2023/04/07,08:50,0.573,0.833,0.499,1.049,0.737,0.327,0.585,0.551,��,9.9,��
2023/04/07,09:00,0.573,0.836,0.499,1.050,0.736,0.326,0.585,0.551,��,10.5,��
2023/04/07,09:10,0.572,0.834,0.501,1.046,0.737,0.325,0.585,0.552,��,9.9,�L
2023/04/07,09:20,0.572,0.835,0.500,1.049,0.734,0.326,0.585,0.551,��,11.3,��
2023/04/07,09:30,0.573,0.833,0.500,1.051,0.734,0.325,0.585,0.551,��쐼,8.4,�L
2023/04/07,09:40,0.569,0.833,0.499,1.050,0.735,0.327,0.585,0.553,��,10.5,��
2023/04/07,09:50,0.571,0.834,0.499,1.049,0.736,0.325,0.588,0.551,��,13.0,�L
2023/04/07,10:00,0.573,0.834,0.500,1.052,0.736,0.326,0.587,0.551,��,13.3,��
2023/04/07,10:10,0.572,0.835,0.499,1.051,0.736,0.327,0.587,0.552,��,10.2,��
2023/04/07,10:20,0.574,0.836,0.501,1.049,0.737,0.325,0.586,0.550,��,13.1,��
2023/04/07,10:30,0.576,0.833,0.500,1.049,0.737,0.325,0.586,0.551,��,11.8,��
2023/04/07,10:40,0.577,0.834,0.499,1.050,0.737,0.327,0.586,0.551,��,13.6,��
2023/04/07,10:50,0.579,0.837,0.501,1.048,0.737,0.325,0.585,0.551,��,13.8,��
2023/04/07,11:00,0.579,0.834,0.502,1.048,0.737,0.327,0.587,0.550,��쓌,12.4,��
2023/04/07,11:10,0.579,0.835,0.501,1.049,0.737,0.327,0.586,0.551,��,10.5,��
2023/04/07,11:20,0.578,0.839,0.502,1.049,0.739,0.327,0.587,0.549,��,12.8,��
2023/04/07,11:30,0.579,0.834,0.502,1.048,0.738,0.327,0.586,0.550,��,11.1,��
2023/04/07,11:40,0.581,0.836,0.500,1.049,0.736,0.326,0.585,0.550,��,13.0,��
2023/04/07,11:50,0.580,0.836,0.502,1.049,0.738,0.326,0.588,0.551,��,10.2,��
2023/04/07,12:00,0.579,0.837,0.502,1.052,0.739,0.327,0.585,0.550,��,11.6,��
2023/04/07,12:10,0.578,0.839,0.502,1.050,0.736,0.326,0.585,0.551,��,12.8,��
2023/04/07,12:20,0.582,0.839,0.502,1.048,0.738,0.326,0.585,0.551,��,10.5,��
2023/04/07,12:30,0.577,0.837,0.503,1.050,0.739,0.326,0.584,0.551,��쓌,12.5,��
2023/04/07,12:40,0.580,0.836,0.500,1.051,0.738,0.326,0.585,0.551,��,12.4,��
2023/04/07,12:50,0.580,0.838,0.503,1.049,0.737,0.326,0.585,0.552,��쓌,13.8,��
2023/04/07,13:00,0.577,0.835,0.501,1.050,0.737,0.327,0.584,0.550,��,15.2,��
2023/04/07,13:10,0.578,0.834,0.500,1.052,0.738,0.325,0.586,0.550,��,14.1,��
2023/04/07,13:20,0.579,0.837,0.500,1.049,0.738,0.325,0.584,0.551,��쓌,15.5,��
2023/04/07,13:30,0.579,0.835,0.501,1.050,0.737,0.326,0.584,0.551,��,12.8,��
2023/04/07,13:40,0.579,0.836,0.502,1.050,0.738,0.325,0.583,0.551,��,14.7,��
2023/04/07,13:50,0.579,0.836,0.503,1.053,0.736,0.326,0.586,0.551,��쓌,16.1,��
2023/04/07,14:00,0.580,0.837,0.502,1.050,0.738,0.326,0.586,0.551,��,15.2,��
2023/04/07,14:10,0.579,0.836,0.500,1.049,0.736,0.326,0.586,0.552,��,16.0,��
2023/04/07,14:20,0.578,0.837,0.501,1.051,0.736,0.326,0.586,0.550,��,15.0,�L
2023/04/07,14:30,0.578,0.835,0.500,1.051,0.738,0.327,0.585,0.551,��쓌,15.0,��
2023/04/07,14:40,0.579,0.836,0.500,1.052,0.736,0.324,0.585,0.552,��,14.9,��
2023/04/07,14:50,0.578,0.836,0.501,1.049,0.737,0.327,0.585,0.551,��쓌,14.4,��
2023/04/07,15:00,0.579,0.837,0.499,1.052,0.738,0.326,0.586,0.551,��쓌,14.4,��
2023/04/07,15:10,0.578,0.836,0.501,1.050,0.737,0.325,0.585,0.550,��쓌,13.5,��
2023/04/07,15:20,0.576,0.838,0.501,1.053,0.737,0.327,0.586,0.552,��쓌,13.8,��
2023/04/07,15:30,0.578,0.837,0.500,1.051,0.738,0.326,0.585,0.551,��쓌,13.1,��
2023/04/07,15:40,0.579,0.837,0.501,1.051,0.738,0.327,0.585,0.550,��쓌,10.8,�L
2023/04/07,15:50,0.579,0.837,0.501,1.054,0.738,0.327,0.586,0.552,��쓌,9.4,�L
2023/04/07,16:00,0.577,0.836,0.503,1.052,0.736,0.328,0.584,0.551,��쓌,10.2,�L
2023/04/07,16:10,0.578,0.835,0.501,1.052,0.739,0.328,0.585,0.551,��,9.3,�L
2023/04/07,16:20,0.580,0.838,0.503,1.053,0.737,0.327,0.586,0.551,��,7.7,�L
2023/04/07,16:30,0.579,0.837,0.503,1.049,0.738,0.328,0.586,0.551,��,7.7,�L
2023/04/07,16:40,0.580,0.837,0.504,1.051,0.738,0.328,0.585,0.553,��쓌,8.8,�L
2023/04/07,16:50,0.581,0.838,0.504,1.052,0.739,0.330,0.587,0.553,��쓌,11.6,�L
2023/04/07,17:00,0.578,0.838,0.505,1.052,0.737,0.327,0.586,0.554,��,14.1,�L
2023/04/07,17:10,0.581,0.837,0.506,1.050,0.738,0.328,0.586,0.554,��쓌,13.0,�L
2023/04/07,17:20,0.582,0.838,0.505,1.052,0.739,0.329,0.588,0.554,��,13.5,�L
2023/04/07,17:30,0.580,0.836,0.505,1.049,0.739,0.328,0.586,0.553,��,13.5,�L
2023/04/07,17:40,0.581,0.842,0.505,1.053,0.739,0.328,0.586,0.553,��,11.7,�L
2023/04/07,17:50,0.581,0.841,0.505,1.054,0.738,0.326,0.585,0.554,��,13.0,��
2023/04/07,18:00,0.578,0.841,0.503,1.053,0.738,0.329,0.585,0.555,��,13.3,�L
2023/04/07,18:10,0.581,0.839,0.505,1.051,0.740,0.328,0.586,0.554,��,12.7,��
2023/04/07,18:20,0.578,0.840,0.505,1.049,0.738,0.328,0.586,0.553,��,14.1,��
2023/04/07,18:30,0.580,0.839,0.504,1.052,0.739,0.327,0.586,0.555,��,13.6,��
2023/04/07,18:40,0.577,0.839,0.504,1.050,0.737,0.327,0.586,0.553,��,14.6,��
2023/04/07,18:50,0.580,0.837,0.504,1.052,0.738,0.328,0.586,0.552,��,13.3,��
2023/04/07,19:00,0.577,0.837,0.503,1.050,0.739,0.328,0.586,0.553,��,11.0,�L
2023/04/07,19:10,0.578,0.836,0.500,1.052,0.738,0.327,0.585,0.551,��,10.6,�L
2023/04/07,19:20,0.578,0.836,0.500,1.051,0.738,0.327,0.587,0.552,��쓌,12.0,�L
2023/04/07,19:30,0.579,0.836,0.502,1.052,0.737,0.328,0.585,0.552,��,10.9,�L
2023/04/07,19:40,0.579,0.835,0.502,1.052,0.738,0.328,0.586,0.552,��,12.4,�L
2023/04/07,19:50,0.578,0.836,0.502,1.052,0.735,0.326,0.587,0.553,��,8.5,�L
2023/04/07,20:00,0.579,0.836,0.502,1.051,0.737,0.326,0.587,0.553,��,8.7,�L
2023/04/07,20:10,0.580,0.836,0.500,1.051,0.737,0.326,0.587,0.553,��,10.7,�L
2023/04/07,20:20,0.579,0.838,0.502,1.052,0.738,0.327,0.586,0.552,��,9.5,��
2023/04/07,20:30,0.581,0.834,0.502,1.053,0.737,0.327,0.588,0.551,��,10.0,�L
2023/04/07,20:40,0.579,0.834,0.502,1.052,0.735,0.326,0.587,0.552,��,9.0,�L
2023/04/07,20:50,0.580,0.838,0.501,1.052,0.737,0.328,0.588,0.553,��,7.5,�L
2023/04/07,21:00,0.580,0.836,0.503,1.051,0.738,0.327,0.587,0.552,��,9.2,�L
2023/04/07,21:10,0.580,0.837,0.504,1.051,0.737,0.328,0.586,0.553,��,10.2,�L
2023/04/07,21:20,0.580,0.838,0.501,1.052,0.736,0.328,0.588,0.550,��,12.4,�L
2023/04/07,21:30,0.578,0.835,0.502,1.051,0.736,0.328,0.587,0.551,��,12.4,�L
2023/04/07,21:40,0.578,0.832,0.500,1.052,0.737,0.329,0.586,0.551,��,11.4,�L
2023/04/07,21:50,0.576,0.831,0.501,1.051,0.733,0.327,0.586,0.550,��,10.9,�L
2023/04/07,22:00,0.578,0.827,0.499,1.046,0.731,0.327,0.587,0.549,��,9.7,�L
2023/04/07,22:10,0.575,0.827,0.497,1.047,0.728,0.327,0.585,0.548,��,9.9,�L
2023/04/07,22:20,0.574,0.825,0.497,1.047,0.726,0.327,0.583,0.549,��,5.8,�L
2023/04/07,22:30,0.571,0.823,0.495,1.047,0.725,0.326,0.585,0.549,��,3.7,�L
2023/04/07,22:40,0.568,0.814,0.493,1.040,0.718,0.326,0.581,0.547,��,6.5,�L
2023/04/07,22:50,0.563,0.809,0.491,1.032,0.711,0.325,0.579,0.544,��,7.9,�L
2023/04/07,23:00,0.565,0.807,0.491,1.029,0.710,0.323,0.578,0.543,��,5.9,�L
2023/04/07,23:10,0.563,0.804,0.490,1.022,0.709,0.323,0.576,0.543,��,6.4,�L
2023/04/07,23:20,0.562,0.803,0.490,1.023,0.707,0.323,0.575,0.544,���k��,4.5,�L
2023/04/07,23:30,0.563,0.805,0.491,1.022,0.704,0.324,0.574,0.542,�k�k��,4.5,�L
2023/04/07,23:40,0.560,0.801,0.489,1.016,0.703,0.323,0.574,0.541,���k��,3.2,�L
2023/04/07,23:50,0.560,0.798,0.489,1.014,0.703,0.322,0.573,0.541,�k��,4.2,�L
